Overview Statistics Trail Chart Weather Telemetry Raw packets
 

This is the latest recevied weather packets stored in our database for station/object KD0MAC. If no packets are shown the sender has not sent any weather packets the latest 10 day(s).

<< 91 92 93 94 95 96 97 >>
Time Temp. Humidity Pressure Rain* Wind** Luminosity Snow
1788079930 27.22° C 46% 1010.8 hPa 0 mm - 0 W/m² -
1788079630 27.22° C 47% 1010.8 hPa 0 mm - 0 W/m² -
1788079329 27.22° C 48% 1010.8 hPa 0 mm - 0 W/m² -
1788079030 27.22° C 48% 1010.8 hPa 0 mm - 0 W/m² -
1788078469 27.22° C 47% 1010.5 hPa 0 mm - 0 W/m² -
1788078130 27.78° C 47% 1010.8 hPa 0 mm - 0 W/m² -
1788077829 27.78° C 45% 1011.5 hPa 0 mm - 0 W/m² -
1788077529 28.33° C 43% 1011.5 hPa 0 mm - 0 W/m² -
1788077231 28.33° C 43% 1011.2 hPa 0 mm - 0 W/m² -
1788076929 28.33° C 43% 1011.2 hPa 0 mm - 0 W/m² -
1788076630 28.89° C 42% 1011.2 hPa 0 mm - 0 W/m² -
1788076330 28.89° C 41% 1011.5 hPa 0 mm - 0 W/m² -
1788076031 28.89° C 41% 1011.5 hPa 0 mm - 0 W/m² -
1788075730 29.44° C 40% 1011.5 hPa 0 mm - 0 W/m² -
1788075430 29.44° C 40% 1011.2 hPa 0 mm - 0 W/m² -
1788075130 29.44° C 40% 1011.2 hPa 0 mm - 0 W/m² -
1788074829 28.89° C 41% 1010.8 hPa 0 mm - 0 W/m² -
1788074529 28.89° C 41% 1010.8 hPa 0 mm - 0 W/m² -
1788074230 28.89° C 41% 1010.8 hPa 0 mm - 0 W/m² -
1788073930 28.89° C 41% 1010.8 hPa 0 mm - 0 W/m² -
1788073629 28.89° C 42% 1010.8 hPa 0 mm - 0 W/m² -
1788073329 28.89° C 43% 1010.8 hPa 0 mm - 0 W/m² -
1788073031 28.89° C 43% 1011.2 hPa 0 mm - 0 W/m² -
1788072731 28.89° C 43% 1011.2 hPa 0 mm - 0 W/m² -
1788072429 28.33° C 44% 1010.8 hPa 0 mm - 0 W/m² -

* Rain latest hour (hover to see other rain measurements)
** Current wind speed in m/s (hover to see current wind gust speed)